www.pogodaiklimat.ru

Погода и климат >> Архив погоды >> Япония >> Абасири


ПОГОДА в Абасири

  • Прогноз погоды в Абасири
  • Монитор погоды в Абасири

АРХИВ ПОГОДЫ в Абасири

Время (UTC), дата Ветер
(напр.,м/с)
 
Видим.   Явления Облачность Т
(С)
Тd
(С)
f
(%)
Тe
(С)
Тes
(С)
Комфортность P
(гПа)
Po
(гПа)
Тmin
(С)
Tmax
(С)
R
(мм)
R24
(мм)
S
(см)
07 9.07 С 3 н/о н/о +12.5 +11.6 94 +11 +11 1014.3 1009.1
08 9.07 С 2 н/о н/о +12.3 +11.5 95 +12 +12 1014.1 1008.9
09 9.07 С 2 500 м туман ?/? +12.3 +11.7 96 +11 +11 1014.4 1009.2
10 9.07 С 3 н/о н/о +12.0 +11.5 97 +10 +10 1015.2 1009.9
11 9.07 С 3 н/о н/о +12.1 +11.6 97 +11 +11 1015.9 1010.6
12 9.07 С 2 700 м морось {туман} ?/? +12.2 +11.7 97 +11 +11 1016.3 1011.0 +15.7 0.0
13 9.07 С 2 н/о н/о +12.2 +11.6 96 +11 +11 1016.2 1010.9
14 9.07 З 2 н/о н/о +12.2 +11.4 95 +11 +11 1015.8 1010.5
15 9.07 С 2 н/о н/о +12.4 +11.5 94 +12 +12 1015.5 1010.3
16 9.07 С 2 н/о н/о +12.4 +11.9 97 +12 +12 1015.4 1010.2
17 9.07 С 1 н/о н/о +12.4 +11.9 97 +12 +12 1015.5 1010.3
18 9.07 В 2 5000 м в посл. час морось 10/10
[St]
+12.2 +11.7 97 +11 +11 1015.8 1010.5 0.5
19 9.07 СВ 2 н/о н/о +12.1 +11.3 95 +11 +11 1016.2 1010.9
20 9.07 СВ 3 н/о н/о +12.1 +11.3 95 +10 +10 1016.7 1011.4
21 9.07 В 2 10 км слаб. морось 10/10 200 м
[St]
+12.0 +10.8 92 +11 +11 1017.2 1011.9
22 9.07 В 2 н/о н/о +12.1 +10.9 92 +11 +11 1017.5 1012.2
23 9.07 СВ 3 н/о н/о +12.2 +10.6 90 +11 +11 1017.7 1012.4
00 10.07 В 3 20 км {морось} 10/10
[St]
+12.2 +10.1 87 +11 +11 1017.8 1012.5 +11.9 0.5
01 10.07 СВ 3 н/о н/о +12.9 +10.5 85 +12 +12 1017.6 1012.4
02 10.07 СВ 3 н/о н/о +12.4 +9.4 82 +11 +11 1017.9 1012.6
03 10.07 СВ 3 20 км 9/9
[St]
+13.0 +9.5 79 +12 +13 1017.9 1012.7
04 10.07 СВ 3 н/о н/о +13.8 +9.9 77 +13 +13 1017.9 1012.7
05 10.07 СВ 3 н/о н/о +13.1 +9.0 76 +12 +12 1018.1 1012.9
06 10.07 В 3 20 км 9/9
[Sc]
+13.3 +9.2 76 +12 +13 1018.1 1012.9
07 10.07 В 3 н/о н/о +12.7 +8.6 76 +11 +11 1018.0 1012.7
08 10.07 В 3 н/о н/о +12.1 +8.6 79 +11 +11 1018.0 1012.7
09 10.07 В 2 20 км 9/9
[St]
+12.0 +8.9 81 +11 +11 1018.2 1012.9
10 10.07 В 2 н/о н/о +11.8 +8.8 82 +11 +11 1018.2 1012.9
11 10.07 В 2 н/о н/о +11.9 +8.9 82 +11 +11 1018.5 1013.2
12 10.07 В 2 15 км 10/10
[St]
+11.8 +8.8 82 +11 +11 1018.4 1013.1 +14.1
13 10.07 В 2 н/о н/о +11.9 +9.1 83 +11 +11 1018.1 1012.8
14 10.07 ЮВ 2 н/о н/о +11.9 +9.3 84 +11 +11 1017.8 1012.5
15 10.07 В 2 н/о н/о +12.0 +9.6 85 +11 +11 1017.6 1012.3
16 10.07 В 2 н/о н/о +12.1 +10.0 87 +11 +11 1017.3 1012.0
17 10.07 В 2 н/о н/о +12.0 +10.1 88 +11 +11 1017.0 1011.7
18 10.07 СВ 2 15 км 10/10
[St]
+12.3 +10.6 89 +12 +12 1017.1 1011.8
19 10.07 ЮВ 1 н/о н/о +12.6 +10.7 88 +13 +13 1017.2 1011.9
20 10.07 ЮВ 2 н/о н/о +12.8 +10.7 87 +12 +12 1017.0 1011.8
21 10.07 ЮВ 2 15 км 9/9
[St]
+13.8 +11.2 84 +13 +13 1016.6 1011.4
22 10.07 ЮВ 2 н/о н/о +14.1 +11.3 83 +14 +14 1016.2 1011.0
23 10.07 В 2 н/о н/о +16.0 +12.2 78 +16 +16 1015.8 1010.6
00 11.07 В 3 20 км 1/1
[St Ac trans Ci fib]
+16.4 +11.8 74 +16 +28 опасность
простуды
1015.6 1010.4 +11.8
01 11.07 В 2 н/о н/о +16.5 +12.1 75 +17 +17 1015.3 1010.1
02 11.07 СВ 3 н/о н/о +16.3 +12.9 80 +16 +16 1015.4 1010.2
03 11.07 СВ 3 30 км 3/1
[Cu med, cong Ac trans Ci sp]
+16.2 +12.6 79 +16 +29 опасность
простуды
1014.7 1009.5
04 11.07 СВ 3 н/о н/о +16.5 +13.2 81 +16 +16 1014.4 1009.2
05 11.07 СВ 3 н/о н/о +16.3 +12.5 78 +16 +16 1014.1 1008.9
06 11.07 СВ 2 25 км 9/1
[Cu med, cong Ci sp]
+15.8 +12.0 78 +16 +23 1013.3 1008.1
07 11.07 СВ 2 н/о н/о +15.5 +12.1 80 +15 +15 1012.9 1007.7
08 11.07 В 2 н/о н/о +15.6 +12.2 80 +16 +16 1012.6 1007.4
09 11.07 В 1 20 км 9/0
[Ac trans Ci sp]
+16.2 +12.4 78 +17 +17 1012.2 1007.0
10 11.07 СВ 2 н/о н/о +15.1 +12.6 85 +15 +15 1012.3 1007.1
11 11.07 З 1 н/о н/о +14.9 +12.8 87 +16 +16 1012.4 1007.2
12 11.07 ЮВ 3 15 км 9/0
[Ci sp]
+15.3 +13.2 87 +15 +15 1012.1 1006.9 +17.9
13 11.07 Ю 4 н/о н/о +17.2 +13.7 80 +17 +17 1011.8 1006.7
14 11.07 ЮЗ 4 н/о н/о +16.9 +13.2 79 +17 +17 1011.1 1006.0
15 11.07 ЮЗ 3 н/о н/о +16.7 +13.1 79 +17 +17 1011.0 1005.9
16 11.07 Ю 3 н/о н/о +16.5 +13.1 80 +16 +16 1010.8 1005.7
17 11.07 Ю 3 н/о н/о +15.2 +12.9 86 +14 +14 1010.4 1005.2
18 11.07 Ю 4 20 км 9/0
[Ac trans Ci sp]
+15.2 +12.5 84 +14 +14 1010.3 1005.1
19 11.07 Ю 3 н/о н/о +15.4 +12.2 81 +15 +15 1010.4 1005.2
20 11.07 Ю 4 н/о н/о +15.7 +12.3 80 +15 +15 1010.3 1005.1
21 11.07 Ю 5 15 км 9/0
[Ac trans Ci sp]
+16.5 +12.5 77 +16 +16 1010.1 1005.0
22 11.07 Ю 4 н/о н/о +17.3 +12.6 74 +17 +17 1009.8 1004.7
23 11.07 Ю 5 н/о н/о +18.6 +12.6 68 +19 +19 1009.5 1004.4
00 12.07 Ю 6 20 км 9/0
[Ac trans Ci sp]
+21.3 +13.5 61 +24 +28 комфорт 1008.9 1003.9 +14.8
01 12.07 Ю 5 н/о н/о +21.1 +13.6 62 +24 +24 комфорт 1008.6 1003.6
02 12.07 Ю 5 н/о н/о +21.6 +13.3 59 +24 +24 комфорт 1008.4 1003.4
03 12.07 Ю 5 30 км 9/1
[St Ac As]
+21.8 +13.5 59 +25 +28 комфорт 1008.0 1003.0
04 12.07 Ю 5 н/о н/о +22.4 +13.7 58 +26 +26 жарко 1007.5 1002.5
06 12.07 ЮЗ 5 25 км 9/1
[Cu med, cong Ac As Ci sp]
+22.0 +12.8 56 +25 +27 комфорт 1006.9 1001.9
07 12.07 Ю 5 н/о н/о +20.6 +12.8 61 +23 +23 комфорт 1007.1 1002.1
08 12.07 Ю 4 н/о н/о +20.1 +12.9 63 +22 +22 комфорт 1007.2 1002.1
09 12.07 Ю 5 20 км {ливн. осадки} 9/1
[Cu med, cong Ac As]
+19.5 +12.3 63 +21 +21 комфорт 1007.3 1002.2
10 12.07 Ю 4 н/о н/о +18.8 +11.6 63 +19 +19 1007.6 1002.5
11 12.07 ЮЗ 5 н/о н/о +18.3 +12.1 67 +18 +18 1007.8 1002.7
12 12.07 Ю 3 15 км слаб. ливневой дождь 10/4
[Cu med, cong Ac As]
+17.6 +12.9 74 +18 +18 1008.0 1002.9 +23.5 0.0
13 12.07 Ю 2 н/о н/о +17.2 +13.1 77 +18 +18 1007.9 1002.8
14 12.07 Ю 4 н/о н/о +17.1 +13.0 77 +17 +17 1007.4 1002.3
15 12.07 Ю 3 н/о н/о +16.9 +13.4 80 +17 +17 1006.9 1001.8
16 12.07 Ю 3 н/о н/о +16.7 +14.0 84 +17 +17 1007.2 1002.1
17 12.07 Ю 3 н/о н/о +16.5 +14.0 85 +16 +16 1007.0 1001.9
18 12.07 Ю 2 15 км {ливн. осадки} 9/1
[Cu med, cong Ac As]
+16.4 +13.7 84 +16 +16 1006.9 1001.8 0.0
19 12.07 Ю 3 н/о н/о +16.4 +13.9 85 +16 +16 1006.7 1001.6
20 12.07 Ю 3 н/о н/о +16.6 +13.7 83 +16 +16 1006.8 1001.7
21 12.07 Ю 3 20 км {ливн. осадки} 9/1
[St Ac As]
+17.4 +13.5 78 +17 +18 1007.1 1002.0
22 12.07 Ю 2 н/о н/о +17.7 +13.6 77 +18 +18 1007.3 1002.2
23 12.07 Ю 3 н/о н/о +18.0 +12.9 72 +18 +18 1007.2 1002.1
00 13.07 Ю 3 15 км слаб. ливневой дождь 10/9
[Cu med, cong Ac As]
+18.1 +14.8 81 +19 +19 1007.3 1002.2 +16.2 0.0
01 13.07 Ю 4 н/о н/о +18.2 +14.9 81 +18 +18 1007.1 1002.0
02 13.07 Ю 4 н/о н/о +18.4 +15.3 82 +19 +19 1007.0 1001.9
03 13.07 ЮВ 5 20 км {ливн. осадки} 9/8
[Cu med, cong Ac As]
+20.0 +15.2 74 +22 +24 комфорт 1006.4 1001.3
04 13.07 Ю 5 н/о н/о +21.0 +15.8 72 +24 +24 комфорт 1006.2 1001.2
05 13.07 ЮВ 5 н/о н/о +19.7 +16.0 79 +22 +22 комфорт 1006.3 1001.2
06 13.07 Ю 5 15 км слаб. ливневой дождь 10/10
[Cu med, cong]
+17.9 +16.1 89 +18 +18 1006.3 1001.2 0.5
07 13.07 Ю 4 н/о н/о +18.5 +16.5 88 +19 +19 1006.4 1001.3
08 13.07 Ю 4 н/о н/о +17.6 +16.1 91 +17 +17 1006.6 1001.5
09 13.07 Ю 3 10 км слаб. ливневой дождь 10/10 200 м
[Frnb]
+17.6 +16.3 92 +18 +18 1006.9 1001.8
10 13.07 Ю 3 н/о н/о +17.3 +16.3 94 +17 +17 1007.3 1002.2
11 13.07 Ю 2 н/о н/о +16.9 +16.3 96 +17 +17 1007.6 1002.5
12 13.07 Ю 1 15 км слаб. ливневой дождь 10/10 200 м
[Cu med, cong]
+16.1 +15.5 96 +17 +17 1007.9 1002.8 +21.2 10
13 13.07 ЮВ 2 н/о н/о +17.3 +16.3 94 +18 +18 1008.1 1003.0
14 13.07 Ю 5 н/о н/о +17.2 +15.7 91 +17 +17 1008.1 1003.0
15 13.07 Ю 5 н/о н/о +17.4 +15.2 87 +17 +17 1008.0 1002.9
16 13.07 Ю 5 н/о н/о +17.5 +15.1 86 +17 +17 1007.8 1002.7
17 13.07 Ю 4 н/о н/о +17.7 +15.2 85 +17 +17 1007.9 1002.8
18 13.07 Ю 4 20 км слаб. ливневой дождь 9/6
[Cu med, cong Ac As]
+17.4 +15.2 87 +17 +17 1008.0 1002.9 0.5
19 13.07 Ю 4 н/о н/о +16.8 +15.3 91 +16 +16 1008.3 1003.2
20 13.07 Ю 4 н/о н/о +16.5 +15.2 92 +16 +16 1008.7 1003.6
21 13.07 Ю 5 10 км в посл. час ливневой дождь 10/8
[Cu med, cong Ac As]
+16.3 +15.0 92 +15 +15 1008.9 1003.8
22 13.07 ЮВ 3 н/о н/о +15.8 +14.9 94 +15 +15 1009.3 1004.2
23 13.07 ЮВ 2 н/о н/о +16.7 +15.6 93 +17 +17 1009.4 1004.3
00 14.07 ЮВ 2 10 км слаб. ливневой дождь 10/5
[Cu med, cong Ac As]
+15.9 +14.9 94 +16 +18 1009.6 1004.5 +15.8 8
01 14.07 Ю 2 н/о н/о +16.5 +15.4 93 +17 +17 1009.6 1004.5
02 14.07 ЮВ 3 н/о н/о +17.0 +15.5 91 +17 +17 1009.7 1004.6
03 14.07 ЮВ 4 15 км слаб. ливневой дождь 10/9
[Cu med, cong Ac As]
+17.0 +14.5 85 +17 +17 1009.6 1004.5
04 14.07 Ю 3 н/о н/о +15.8 +14.5 92 +15 +15 1009.9 1004.7
05 14.07 Ю 3 н/о н/о +16.3 +15.2 93 +16 +16 1010.0 1004.9
06 14.07 ЮВ 2 15 км слаб. ливневой дождь 10/9
[Cu med, cong Ac As]
+16.6 +15.6 94 +17 +17 1010.0 1004.9 8
07 14.07 Ю 2 н/о н/о +16.7 +15.4 92 +17 +17 1009.9 1004.8
08 14.07 ЮВ 1 н/о н/о +16.4 +15.1 92 +17 +17 1010.1 1005.0
09 14.07 Ю 1 15 км слаб. ливневой дождь 10/10
[Cu med, cong]
+16.3 +15.3 94 +17 +17 1010.4 1005.3
10 14.07 Ю 2 н/о н/о +16.3 +15.3 94 +16 +16 1010.5 1005.4
11 14.07 Ю 3 н/о н/о +16.2 +15.1 93 +16 +16 1011.0 1005.9
12 14.07 ЮВ 1 15 км слаб. ливневой дождь 10/10
[Cu med, cong]
+15.6 +14.5 93 +16 +16 1011.4 1006.2 +17.4 12
13 14.07 ЮВ 1 н/о н/о +15.5 +14.7 95 +16 +16 1011.5 1006.3
14 14.07 Ю 1 н/о н/о +15.5 +14.7 95 +16 +16 1011.6 1006.4
15 14.07 Ю 2 н/о н/о +15.4 +14.3 93 +15 +15 1011.4 1006.2
16 14.07 ЮВ 1 н/о н/о +14.8 +13.9 94 +15 +15 1011.5 1006.3
17 14.07 С 1 н/о н/о +14.6 +13.8 95 +15 +15 1011.7 1006.5
18 14.07 ЮВ 1 15 км {ливн. осадки} 10/3
[Cu med, cong Ac As]
+14.9 +13.5 91 +15 +15 1012.1 1006.9 0.5
19 14.07 Ю 2 н/о н/о +14.7 +12.7 88 +14 +14 1012.5 1007.3
20 14.07 Ю 1 н/о н/о +14.6 +12.8 89 +15 +15 1013.0 1007.8
21 14.07 Ю 1 15 км {ливн. осадки} 9/9
[Cu med, cong Ac As]
+14.9 +12.9 88 +15 +16 1013.3 1008.1
22 14.07 ЮВ 1 н/о н/о +15.9 +13.0 83 +17 +17 1013.5 1008.3
23 14.07 ЮВ 2 н/о н/о +16.9 +13.2 79 +17 +17 1013.6 1008.5
00 15.07 В 2 15 км {ливн. осадки} 9/3
[Cu med, cong Ac trans]
+16.9 +11.6 71 +17 +23 1013.6 1008.5 +14.5 0.5
01 15.07 В 2 н/о н/о +17.3 +12.2 72 +18 +18 1013.7 1008.6
02 15.07 ЮВ 3 н/о н/о +17.1 +12.4 74 +17 +17 1013.7 1008.6
03 15.07 ЮВ 2 20 км 9/3
[Cu med, cong Ac As]
+19.0 +13.2 69 +21 +26 комфорт 1013.7 1008.6
04 15.07 В 4 н/о н/о +18.0 +12.9 72 +18 +18 1013.8 1008.7
05 15.07 В 3 н/о н/о +19.7 +12.7 64 +22 +22 комфорт 1013.8 1008.7
06 15.07 ЮВ 3 25 км 9/1
[Cu med, cong Ac As]
+20.2 +12.5 61 +22 +25 комфорт 1013.8 1008.7
07 15.07 Ю 4 н/о н/о +19.7 +11.7 60 +21 +21 комфорт 1013.9 1008.8
08 15.07 Ю 3 н/о н/о +19.2 +12.0 63 +20 +20 1013.9 1008.8
09 15.07 ЮВ 3 20 км 9/1
[Cu med, cong Ac trans Cc]
+17.8 +12.5 71 +18 +18 1014.4 1009.3
10 15.07 Ю 4 н/о н/о +16.8 +11.9 73 +16 +16 1014.9 1009.7
11 15.07 Ю 3 н/о н/о +15.6 +12.0 79 +15 +15 1015.3 1010.1
12 15.07 Ю 2 15 км 8/1
[St Ac trans Ci sp]
+14.7 +11.7 82 +14 +14 1015.8 1010.6 +20.8
13 15.07 Ю 3 н/о н/о +14.1 +11.1 82 +13 +13 1016.0 1010.8
14 15.07 Ю 3 н/о н/о +13.7 +10.9 83 +13 +13 1016.0 1010.8
15 15.07 Ю 3 н/о н/о +13.1 +10.6 85 +12 +12 1016.2 1011.0
16 15.07 Ю 3 н/о н/о +12.8 +10.4 85 +12 +12 1016.1 1010.9
17 15.07 Ю 2 н/о н/о +12.7 +10.3 85 +12 +12 1016.1 1010.9
18 15.07 Ю 3 15 км 1/1
[St Ac trans]
+12.7 +9.9 83 +11 +11 1016.2 1011.0
19 15.07 Ю 4 н/о н/о +12.7 +9.7 82 +11 +11 1016.1 1010.9
20 15.07 Ю 3 н/о н/о +13.3 +10.1 81 +12 +12 1016.3 1011.1
21 15.07 Ю 2 25 км 8/1
[Cu hum Ac As]
+14.6 +11.0 79 +15 +16 1016.7 1011.5
22 15.07 Ю 2 н/о н/о +16.3 +11.7 74 +16 +16 1016.8 1011.6
00 16.07 ЮВ 3 25 км 9/9
[Cu Sc Ac trans]
+17.1 +12.2 73 +17 +18 1016.7 1011.5 +12.5
01 16.07 Ю 3 н/о н/о +18.7 +12.5 67 +20 +20 1016.5 1011.4
02 16.07 ЮВ 2 н/о н/о +20.7 +13.9 65 +24 +24 комфорт 1016.3 1011.2
03 16.07 ЮВ 3 30 км 9/1
[Cu hum Ac trans]
+19.7 +13.4 67 +22 +28 комфорт 1015.9 1010.8
04 16.07 С 2 н/о н/о +19.5 +13.9 70 +22 +22 комфорт 1015.7 1010.6
05 16.07 С 2 н/о н/о +18.4 +13.9 75 +20 +20 1015.3 1010.2

 

Местоположение метеостанции Абасири (Япония): широта 44.02 долгота 144.28 высота над уровнем моря 43 м.

В архиве по умолчанию представлена погода в Абасири за последнюю неделю. Архивные данные за месяц целиком и за предыдущие месяцы, начиная с января 2011 года, Вы можете получить, выбрав интересующий диапазон дат из раскрывающегося списка и нажав кнопку "Ввод!".


*Определитесь, кто Вы:
робот инопланетянин человек

Внимание! Время в таблицах - всемирное. Для получения местного времени необходимо прибавить поправку, которая равна 9 ч.

Смотрите также архив погоды в соседних городах и на ближайших метеорологических станциях:

Погода в Момбецу (Япония) (83 км)
Погода в Кусиро (Япония) (116 км)
Погода в Южно-Курильске (Сахалинская область, Россия) (122 км)
Погода в Омурайсу (Япония) (122 км)
Погода в Немуро (Япония) (130 км)
Погода в Обихиро (Япония) (150 км)
Погода в Асахикаве (Япония) (156 км)
Погода в Китами Сачи (Япония) (169 км)
Погода в Малокурильском (Сахалинская область, Россия) (202 км)
Погода в Хироо (Япония) (207 км)

Пояснения к столбцам:

Ветер - указаны скорость ветра в м/с - средняя за 10 мин, порывы в срок и между сроками (в фигурных скобках) и направление, откуда дует ветер: С - северный, СВ - северо-восточный, В - восточный, ЮВ - юго-восточный, Ю - южный, ЮЗ - юго-западный, З - западный, СЗ - северо-западный.
Видимость - горизонтальная дальность видимости в метрах или километрах. При видимости от 1 до 10 км при отсутствии осадков обычно наблюдается дымка, при ухудшении видимости до 1 км и менее - туман. В сухую погоду видимость может ухудшаться дымом, пылью или мглою.
Явления - указаны атмосферные явления, наблюдавшиеся в срок или в последний час перед сроком; фигурными скобками обозначены явления, наблюдавшиеся между сроками (за 1-3 часа до срока); квадратными скобками обозначены град или гололедные отложения с указанием их диаметра в мм.
Облачность - указаны через наклонную черту общая и нижняя облачность в баллах и высота нижней границы облаков в метрах; квадратными скобками обозначены формы облаков: Ci - перистые, Cs - перисто-слоистые, Cc - перисто-кучевые, Ac - высококучевые, As - высокослоистые, Sc - слоисто-кучевые, Ns - слоисто-дождевые, Cu - кучевые, Cb - кучево-дождевые. Подробнее классификацию облаков см. в Атласе облаков (PDF).
T - Температура воздуха - температура, измеренная на высоте 2 м над землей.
Td - Температура точки росы - температура, при понижении до которой содержащийся в воздухе водяной пар достигнет насыщения.
f - Относительная влажность воздуха - влажноcть воздуха, измеренная на высоте 2 м над землей.
Te - Эффективная температура - температура, которую ощущает одетый по сезону человек в тени. Характеристика душности погоды. При расчете учитывается влияние влажности воздуха и скорости ветра на теплоощущения человека.
Tes - Эффективная температура на солнце - температура, которую ощущает человек, с поправкой на солнечный нагрев. Характеристика знойности погоды. Зависит от высоты солнца над горизонтом, облачности и скорости ветра. Ночью, в пасмурную погоду, а также при ветре 12 м/с и более поправка равна нулю.
P - Атмосферное давление - приведенное к уровню моря атмосферное давление.
Po - Атмосферное давление - измеренное на уровне метеостанции атмосферное давление.
Tmin - Минимальная температура - минимум температуры воздуха на высоте 2 м над землей.
Tmax - Максимальная температура - максимум температуры воздуха на высоте 2 м над землей.
R - Количество осадков - Количество выпавших осадков за период времени, мм. При наведении курсора мыши на число - период времени, за который выпало указанное количество осадков.
R24 - Количество осадков - Количество выпавших осадков за 24 часа, мм.
S - Снежный покров - Высота снежного покрова, см. При наведении курсора мыши на число - состояние снежного покрова и степень покрытия местности в баллах.